DW7584 Weather Reports


Display with metric or nautical units.
time (UTC)temp
F
wind
direction
speed
MPH
gust
MPH
rain 1hr
in
rain 24hr
in
rain mn
in
humidity
%
barometer
mb
20260505020519 58 270 11.0 17.0 0.00 0.00 0.00 41 999.3
20260505015517 59 270 12.0 18.0 0.00 0.00 0.00 42 999.3
20260505014517 60 270 13.0 20.0 0.00 0.00 0.00 38 998.9
20260505013517 60 270 15.0 21.0 0.00 0.00 0.00 38 998.9
20260505012517 60 270 11.0 15.0 0.00 0.00 0.00 44 998.7
20260505011517 60 270 13.0 17.0 0.00 0.00 0.00 43 998.2
20260505010517 60 248 9.0 12.0 0.00 0.00 0.00 46 997.9
20260505005517 61 248 10.0 13.0 0.00 0.00 0.00 43 997.7
20260505004537 62 270 12.0 16.0 0.00 0.00 0.00 40 997.5
20260505003517 62 270 11.0 14.0 0.00 0.00 0.00 40 997.3
20260505002517 63 248 14.0 19.0 0.00 0.00 0.00 42 997.1
20260505001517 63 248 13.0 17.0 0.00 0.00 0.00 41 997.0
20260505000517 64 248 12.0 17.0 0.00 0.00 0.00 40 996.8
20260504235517 64 248 15.0 20.0 0.00 0.00 0.00 38 996.7
20260504234516 65 248 16.0 23.0 0.00 0.00 0.00 38 996.6
20260504233517 65 248 17.0 23.0 0.00 0.00 0.00 40 996.6
20260504232518 65 248 14.0 21.0 0.00 0.00 0.00 40 996.7
20260504231517 66 248 16.0 21.0 0.00 0.00 0.00 38 996.4
20260504230517 66 248 14.0 18.0 0.00 0.00 0.00 38 996.4
20260504225517 66 248 14.0 18.0 0.00 0.00 0.00 39 996.2
20260504224517 67 248 16.0 21.0 0.00 0.00 0.00 40 996.3
20260504223517 67 248 16.0 21.0 0.00 0.00 0.00 39 996.1
20260504222516 67 248 15.0 20.0 0.00 0.00 0.00 38 996.1
20260504221517 68 270 18.0 23.0 0.00 0.00 0.00 39 996.1
20260504220518 68 248 16.0 21.0 0.00 0.00 0.00 38 996.0
20260504215518 69 248 19.0 25.0 0.00 0.00 0.00 36 995.8
20260504214517 70 270 16.0 22.0 0.00 0.00 0.00 38 995.6
20260504213517 70 270 14.0 18.0 0.00 0.00 0.00 35 995.5
20260504212516 70 248 13.0 18.0 0.00 0.00 0.00 39 995.5
20260504211516 70 270 16.0 21.0 0.00 0.00 0.00 37 995.3
20260504210517 71 270 14.0 21.0 0.00 0.00 0.00 38 995.1
20260504205516 73 248 15.0 23.0 0.00 0.00 0.00 38 995.0
20260504204536 73 248 18.0 22.0 0.00 0.00 0.00 39 995.0
20260504203536 73 248 19.0 24.0 0.00 0.00 0.00 39 995.0
20260504202516 73 248 19.0 24.0 0.00 0.00 0.00 39 994.8
20260504201517 73 248 20.0 28.0 0.00 0.00 0.00 41 994.9
20260504200516 74 248 24.0 32.0 0.00 0.00 0.00 37 994.8
20260504195516 74 248 23.0 31.0 0.00 0.00 0.00 42 995.1
20260504194516 74 248 20.0 28.0 0.00 0.00 0.00 41 995.3
20260504193516 74 248 18.0 24.0 0.00 0.00 0.00 43 995.3
20260504192516 73 248 20.0 28.0 0.00 0.00 0.00 40 995.2
20260504191516 75 225 19.0 27.0 0.00 0.00 0.00 42 995.4
20260504190516 74 248 22.0 34.0 0.00 0.00 0.00 39 995.4
20260504185516 74 248 20.0 30.0 0.00 0.00 0.00 41 995.2
20260504184516 73 248 23.0 28.0 0.00 0.00 0.00 41 995.2
20260504183517 74 225 21.0 29.0 0.00 0.00 0.00 41 995.4
20260504182516 73 248 19.0 27.0 0.00 0.00 0.00 41 995.2
20260504181516 74 225 22.0 31.0 0.00 0.00 0.00 40 995.3
20260504180516 74 225 23.0 33.0 0.00 0.00 0.00 40 995.2
20260504175516 74 248 21.0 29.0 0.00 0.00 0.00 39 995.1
20260504174516 74 225 21.0 27.0 0.00 0.00 0.00 41 995.4
20260504173516 74 225 22.0 35.0 0.00 0.00 0.00 41 995.4
20260504172516 73 225 21.0 30.0 0.00 0.00 0.00 40 995.4
20260504171516 73 225 22.0 31.0 0.00 0.00 0.00 40 995.4
20260504170516 74 225 23.0 36.0 0.00 0.00 0.00 40 995.5
20260504150516 69 203 7.0 16.0 0.00 0.00 0.00 40 997.1
20260504140516 66 203 6.0 16.0 0.00 0.00 0.00 44 997.9
20260504130515 61 225 5.0 11.0 0.00 0.00 0.00 54 999.3
20260504110515 45 248 1.0 3.0 0.00 0.00 0.00 75 1000.1
20260504100518 44 0.0 1.0 0.00 0.00 0.00 76 1001.0
20260504081519 44 0.0 1.0 0.00 0.00 0.00 82 1002.5
20260504080517 44 0.0 1.0 0.00 0.00 0.00 83 1002.7
20260504050517 54 0.0 3.0 0.00 0.00 0.00 64 1004.8
20260504045517 55 90 1.0 4.0 0.00 0.00 0.00 62 1004.8
20260504044517 55 45 5.0 7.0 0.00 0.00 0.00 61 1004.6
20260504043517 53 338 2.0 4.0 0.00 0.00 0.00 62 1004.4
20260504042517 54 315 2.0 6.0 0.00 0.00 0.00 61 1004.5
20260504041517 56 270 4.0 6.0 0.00 0.00 0.00 56 1004.3
20260504040517 56 248 4.0 5.0 0.00 0.00 0.00 55 1004.1
20260504035517 56 248 4.0 4.0 0.00 0.00 0.00 57 1004.1
20260504034517 57 248 5.0 7.0 0.00 0.00 0.00 54 1004.2
20260504033517 58 248 6.0 7.0 0.00 0.00 0.00 52 1004.2
20260504032537 58 248 6.0 7.0 0.00 0.00 0.00 53 1004.2
20260504031537 58 248 5.0 6.0 0.00 0.00 0.00 55 1004.3
20260504030517 58 248 6.0 7.0 0.00 0.00 0.00 56 1004.4
20260504025517 57 225 5.0 6.0 0.00 0.00 0.00 60 1004.4
20260504024517 57 225 6.0 7.0 0.00 0.00 0.00 59 1004.2
20260504023517 57 225 5.0 6.0 0.00 0.00 0.00 60 1004.2
20260504022537 56 225 5.0 6.0 0.00 0.00 0.00 62 1004.2
20260504021517 56 225 5.0 7.0 0.00 0.00 0.00 62 1004.0